Buffalo, NY

2:00 AM EDT on October 21, 2019 (GMT -0400)
Buffalo Niagara International

Weather History for KBUF - August, 2019

Change the Weather History Date:

Tuesday, August 13, 2019

  Actual Average Record
Temperature  
Mean Temperature 73 °F 70 °F  
Max Temperature 80 °F 79 °F 93 °F (1947)
Min Temperature 66 °F 61 °F 46 °F (1979)
Degree Days  
Heating Degree Days 0 0  
Month to date heating degree days 0 0  
Since 1 June heating degree days 62 73  
Since 1 July heating degree days 0 9  
Cooling Degree Days 8 6  
Month to date cooling degree days 87 78  
Year to date cooling degree days 455 404  
Since 1 June cooling degree days 447 378  
Growing Degree Days 24 (Base 50)    
Moisture  
Dew Point 66 °F    
Average Humidity 79    
Maximum Humidity 90    
Minimum Humidity 68    
Precipitation  
Precipitation 1.22 in 0.10 in 2.23 in (1963)
Month to date precipitation 1.57 1.41  
Year to date precipitation 26.32 23.31  
Snow  
Snow 0.00 in 0.00 in 0.00 in ()
Month to date snowfall 0.0 0.0  
Since 1 June snowfall 0.0 0.0  
Since 1 July snowfall 0.0 0.0  
Snow Depth 0.00 in    
Sea Level Pressure  
Sea Level Pressure 29.79 in    
Wind  
Wind Speed 5 mph (SW)    
Max Wind Speed 14 mph    
Max Gust Speed 18 mph    
Visibility 9 miles    
Events Fog , Rain    
T = Trace of Precipitation, MM = Missing Value Source: NWS Daily Summary

Daily Weather History Graph

Daily Weather History Graph

Search for Another Location

Airport or City:

Astronomy

Aug. 13, 2019 Rise Set
Actual Time 6:18 AM EDT 8:20 PM EDT
Civil Twilight 5:47 AM EDT 8:51 PM EDT
Nautical Twilight 5:09 AM EDT 9:28 PM EDT
Astronomical Twilight 4:28 AM EDT 10:09 PM EDT
Moon 7:36 PM EDT (8/13) 4:15 AM EDT (8/13)
Length of Visible Light 15h 03m
Length of Day
14h 01m
Waxing Gibbous, 97% of the Moon is Illuminated
Aug 13
Waxing Gibbous
Aug 15
Full
Aug 23
Last Quarter
Aug 30
New
Sep 5
First Quarter

Hourly Weather History & Observations

Time (EDT) Temp. Heat Index Dew Point Humidity Pressure Visibility Wind Dir Wind Speed Gust Speed Precip Events Conditions
12:54 AM 73.9 °F - 63.0 °F 68% 29.81 in 10.0 mi SW 5.8 mph - N/A   Overcast
1:54 AM 73.9 °F - 62.1 °F 66% 29.80 in 10.0 mi SW 5.8 mph - N/A   Overcast
2:54 AM 73.9 °F - 63.0 °F 68% 29.79 in 10.0 mi SW 6.9 mph - N/A   Overcast
3:54 AM 73.0 °F - 64.0 °F 73% 29.79 in 10.0 mi SSW 6.9 mph - N/A   Overcast
4:02 AM 73.0 °F - 64.9 °F 76% 29.80 in 10.0 mi SSW 8.1 mph - N/A   Overcast
4:54 AM 72.0 °F - 63.0 °F 73% 29.78 in 10.0 mi WSW 3.5 mph - 0.00 in   Overcast
5:02 AM 70.0 °F - 64.0 °F 81% 29.80 in 1.5 mi WSW 9.2 mph - 0.03 in Rain Heavy Rain
5:11 AM 69.1 °F - 66.0 °F 90% 29.80 in 0.5 mi SW 6.9 mph - 0.38 in Fog , Rain Heavy Rain
5:20 AM 69.1 °F - 66.0 °F 90% 29.79 in 0.8 mi South 6.9 mph - 0.77 in Rain Heavy Rain
5:27 AM 69.1 °F - 66.0 °F 90% 29.79 in 1.5 mi South 8.1 mph - 0.91 in Rain Heavy Rain
5:39 AM 69.1 °F - 66.9 °F 93% 29.79 in 3.0 mi South 8.1 mph - 1.13 in Rain Rain
5:54 AM 69.1 °F - 66.0 °F 90% 29.78 in 10.0 mi South 6.9 mph - 1.16 in   Overcast
6:54 AM 70.0 °F - 66.0 °F 87% 29.78 in 10.0 mi Calm Calm - 0.00 in Rain Light Rain
7:54 AM 70.0 °F - 66.0 °F 87% 29.80 in 10.0 mi SSW 6.9 mph - 0.00 in   Overcast
8:40 AM 70.0 °F - 66.0 °F 87% 29.81 in 10.0 mi SSW 3.5 mph - N/A   Overcast
8:54 AM 71.1 °F - 66.0 °F 84% 29.80 in 10.0 mi SSW 4.6 mph - N/A   Overcast
9:52 AM 73.4 °F - 66.2 °F 78% 29.81 in 10.0 mi Calm Calm - N/A   Overcast
10:06 AM 73.0 °F - 68.0 °F 84% 29.81 in 10.0 mi SSW 5.8 mph - N/A   Mostly Cloudy
10:50 AM 75.2 °F - 66.2 °F 73% 29.81 in 10.0 mi Calm Calm - N/A   Mostly Cloudy
10:54 AM 75.0 °F - 66.9 °F 76% 29.80 in 10.0 mi Calm Calm - N/A   Mostly Cloudy
11:54 AM 77.0 °F - 68.0 °F 74% 29.79 in 10.0 mi SW 8.1 mph - N/A   Mostly Cloudy
12:54 PM 78.1 °F - 68.0 °F 71% 29.79 in 10.0 mi WSW 12.7 mph - N/A   Mostly Cloudy
1:49 PM 78.8 °F - 68.0 °F 69% 29.79 in 10.0 mi West 11.5 mph - N/A   Mostly Cloudy
1:54 PM 78.1 °F - 68.0 °F 71% 29.78 in 10.0 mi WSW 10.4 mph - N/A   Mostly Cloudy
2:54 PM 80.1 °F 82.9 °F 69.1 °F 69% 29.76 in 10.0 mi WSW 9.2 mph - N/A   Mostly Cloudy
3:22 PM 77.0 °F - 68.0 °F 74% 29.77 in 10.0 mi WSW 9.2 mph - 0.00 in Rain Light Rain
3:54 PM 75.0 °F - 69.1 °F 82% 29.77 in 10.0 mi WSW 6.9 mph - 0.06 in Rain Light Rain
4:45 PM 75.0 °F - 68.0 °F 79% 29.77 in 10.0 mi NW 6.9 mph - 0.00 in Rain Light Rain
4:54 PM 75.0 °F - 69.1 °F 82% 29.77 in 10.0 mi NW 3.5 mph - 0.00 in   Overcast
5:54 PM 77.0 °F - 68.0 °F 74% 29.78 in 10.0 mi North 4.6 mph - N/A   Mostly Cloudy
6:54 PM 77.0 °F - 68.0 °F 74% 29.78 in 10.0 mi North 4.6 mph - N/A   Mostly Cloudy
7:54 PM 75.0 °F - 64.0 °F 69% 29.79 in 10.0 mi NNE 5.8 mph - N/A   Mostly Cloudy
8:54 PM 73.0 °F - 66.0 °F 79% 29.81 in 10.0 mi NE 3.5 mph - N/A   Mostly Cloudy
9:54 PM 72.0 °F - 64.0 °F 76% 29.82 in 10.0 mi NE 3.5 mph - N/A   Mostly Cloudy
10:54 PM 70.0 °F - 63.0 °F 78% 29.83 in 10.0 mi NE 4.6 mph - N/A   Mostly Cloudy
11:54 PM 69.1 °F - 61.0 °F 75% 29.83 in 10.0 mi ENE 3.5 mph - N/A   Mostly Cloudy